Location: Ahausen
(50.4985°N, 8.2722°E)
Time: 01:19:21
(UTC+00:00)

ITUPSAT 1 - Pass Details

Date: 08 July 2022
Orbit: 701 x 711 km, 98.6° (Epoch: 16 August)

Event Time Altitude Azimuth Distance (km) Brightness Sun altitude
Rises 21:03:52 0° 8° (N) 3,117 ? -10.1°
Reaches altitude 10° 21:06:20 10° 358° (N) 2,195 ? -10.3°
Maximum altitude 21:10:32 31° 297° (WNW) 1,230 ? -10.7°
Drops below altitude 10° 21:14:44 10° 236° (SW) 2,186 ? -11.0°
Sets 21:17:11 0° 226° (SW) 3,102 ? -11.3°
